FW8573 Weather Reports


time (UTC)temp
C
wind
direction
speed
KPH
gust
KPH
rain 1hr
cm
rain 24hr
cm
rain mn
cm
humidity
%
barometer
mb
20260906121103 19 35 0.0 0.0 0.00 0.00 0.00 99 1018.8
20260906120602 18 35 0.0 0.0 0.00 0.00 0.00 99 1018.8
20260906120100 18 35 0.0 0.0 0.00 0.00 0.00 99 1018.7
20260906115555 18 35 0.0 0.0 0.00 0.00 0.00 99 1018.5
20260906115050 18 35 0.0 0.0 0.00 0.00 0.00 99 1018.4
20260906114549 18 35 0.0 0.0 0.00 0.00 0.00 99 1018.5
20260906114045 18 35 0.0 0.0 0.00 0.00 0.00 99 1018.3
20260906113544 18 35 0.0 0.0 0.00 0.00 0.00 99 1018.1
20260906113039 18 35 0.0 0.0 0.00 0.00 0.00 99 1018.3
20260906112534 18 35 0.0 0.0 0.00 0.00 0.00 99 1018.2
20260906112030 18 35 0.0 0.0 0.00 0.00 0.00 99 1018.1
20260906111524 18 35 0.0 0.0 0.00 0.00 0.00 99 1018.1
20260906111020 18 35 0.0 0.0 0.00 0.00 0.00 99 1018.1
20260906110519 18 35 0.0 0.0 0.00 0.00 0.00 99 1018.0
20260906110019 18 35 0.0 0.0 0.00 0.00 0.00 99 1018.1
20260906105514 18 35 0.0 0.0 0.00 0.00 0.00 99 1018.0
20260906105010 18 35 0.0 0.0 0.00 0.00 0.00 99 1017.8
20260906104509 18 35 0.0 0.0 0.00 0.00 0.00 99 1017.7
20260906104009 18 35 0.0 0.0 0.00 0.00 0.00 99 1017.8
20260906103507 18 35 0.0 0.0 0.00 0.00 0.00 98 1017.7
20260906103002 18 35 0.0 0.0 0.00 0.00 0.00 98 1017.6
20260906102457 18 35 0.0 0.0 0.00 0.00 0.00 98 1017.5
20260906101956 18 35 0.0 0.0 0.00 0.00 0.00 98 1017.5
20260906101452 18 35 0.0 0.0 0.00 0.00 0.00 98 1017.6
20260906100947 18 36 0.0 0.0 0.00 0.00 0.00 98 1017.1
20260906100442 18 37 0.0 0.0 0.00 0.00 0.00 98 1017.3
20260906095942 18 37 0.0 0.0 0.00 0.00 0.00 98 1017.5
20260906095437 18 37 0.0 0.0 0.00 0.00 0.00 98 1017.4
20260906094932 19 37 0.0 0.0 0.00 0.00 0.00 98 1017.5
20260906094426 19 53 0.0 0.0 0.00 0.00 0.00 98 1017.5
20260906093923 19 53 0.0 0.0 0.00 0.00 0.00 98 1017.3
20260906093419 19 53 0.0 0.0 0.00 0.00 0.00 98 1017.6
20260906092918 20 53 0.0 0.0 0.00 0.00 0.00 98 1017.5
20260906092412 20 53 0.0 0.0 0.00 0.00 0.00 98 1017.5
20260906091908 20 53 0.0 0.0 0.00 0.00 0.00 98 1017.4
20260906091403 20 53 0.0 0.0 0.00 0.00 0.00 98 1017.5
20260906090901 20 53 0.0 0.0 0.00 0.00 0.00 98 1017.3
20260906090400 20 53 0.0 0.0 0.00 0.00 0.00 98 1017.3
20260906085854 20 53 0.0 0.0 0.00 0.00 0.00 98 1017.4
20260906085353 20 49 0.0 0.0 0.00 0.00 0.00 97 1017.4
20260906084843 20 49 0.0 0.0 0.00 0.00 0.00 97 1017.3
20260906084342 20 38 0.0 0.0 0.00 0.00 0.00 97 1017.5
20260906083836 20 45 0.0 0.0 0.00 0.00 0.00 97 1017.4
20260906083332 20 34 0.0 0.0 0.00 0.00 0.00 97 1017.5
20260906082832 20 41 0.0 0.0 0.00 0.00 0.00 97 1017.2
20260906082327 20 41 0.0 0.0 0.00 0.00 0.00 97 1017.4
20260906081823 20 33 0.0 0.0 0.00 0.00 0.00 97 1017.3
20260906081319 20 33 0.0 0.0 0.00 0.00 0.00 97 1017.6
20260906080814 20 33 0.0 0.0 0.00 0.00 0.00 97 1017.2
20260906080311 20 48 0.0 0.0 0.00 0.00 0.00 97 1017.2
20260906075805 20 44 0.0 0.0 0.00 0.00 0.00 97 1017.3
20260906075306 20 44 0.0 0.0 0.00 0.00 0.00 97 1017.1
20260906074800 20 44 0.0 0.0 0.00 0.00 0.00 97 1017.2
20260906074259 20 42 0.0 0.0 0.00 0.00 0.00 97 1017.2
20260906073758 20 44 0.0 0.0 0.00 0.00 0.00 97 1017.4
20260906073253 20 49 0.0 0.0 0.00 0.00 0.00 97 1017.2
20260906072749 20 49 0.0 0.0 0.00 0.00 0.00 97 1017.2
20260906072244 20 49 0.0 0.0 0.00 0.00 0.00 97 1017.2
20260906071740 20 49 0.0 0.0 0.00 0.00 0.00 97 1017.4
20260906071240 20 49 0.0 0.0 0.00 0.00 0.00 97 1017.2
20260906070737 20 49 0.0 0.0 0.00 0.00 0.00 97 1017.4
20260906070232 20 48 0.0 0.0 0.00 0.00 0.00 97 1017.5
20260906065732 20 49 0.0 0.0 0.00 0.00 0.00 98 1017.3
20260906065227 20 49 0.0 0.0 0.00 0.00 0.00 98 1017.5
20260906064722 20 37 0.0 0.0 0.00 0.00 0.00 98 1017.2
20260906064218 20 37 0.0 0.0 0.00 0.00 0.00 98 1017.3
20260906063713 20 37 0.0 0.0 0.00 0.00 0.00 98 1017.0
20260906063209 20 37 0.0 0.0 0.00 0.00 0.00 97 1017.3
20260906062704 20 37 0.0 0.0 0.00 0.00 0.00 97 1017.3
20260906062203 20 37 0.0 0.0 0.00 0.00 0.00 97 1017.4
20260906061659 20 37 0.0 0.0 0.00 0.00 0.00 97 1017.4
20260906061154 20 39 0.0 0.0 0.00 0.00 0.00 97 1017.2
20260906060651 20 38 0.0 0.0 0.00 0.00 0.00 97 1017.0
20260906060148 20 38 0.0 0.0 0.00 0.00 0.00 97 1017.3
20260906055643 20 41 0.0 0.0 0.00 0.00 0.00 97 1017.3
20260906055138 20 44 0.0 0.0 0.00 0.00 0.00 97 1017.3
20260906054633 20 44 0.0 0.0 0.00 0.00 0.00 97 1017.3
20260906054128 20 45 0.0 0.0 0.00 0.00 0.00 97 1017.2
20260906053625 20 45 0.0 0.0 0.00 0.00 0.00 97 1017.3
20260906053120 20 45 0.0 0.0 0.00 0.00 0.00 97 1017.0
20260906052615 20 45 0.0 0.0 0.00 0.00 0.00 96 1016.8
20260906052112 21 46 0.0 0.0 0.00 0.00 0.00 96 1016.9
20260906051608 21 49 0.0 0.0 0.00 0.00 0.00 96 1016.9
20260906051103 21 46 0.0 0.0 0.00 0.00 0.00 96 1016.9
20260906050558 21 36 0.0 0.0 0.00 0.00 0.00 96 1016.7
20260906050053 21 37 0.0 0.0 0.00 0.00 0.00 96 1016.8
20260906045551 21 41 0.0 0.0 0.00 0.00 0.00 96 1017.0
20260906045047 21 81 0.0 3.2 0.00 0.00 0.00 96 1016.9
20260906044542 21 35 0.0 0.0 0.00 0.00 0.00 96 1016.9
20260906044038 21 37 0.0 0.0 0.00 0.00 0.00 96 1016.7
20260906043533 21 18 0.0 0.0 0.00 0.00 0.00 96 1016.6
20260906043030 21 26 0.0 0.0 0.00 0.00 0.00 96 1016.8
20260906042528 21 29 0.0 0.0 0.00 0.00 0.00 96 1016.5
20260906042022 21 28 0.0 0.0 0.00 0.00 0.00 96 1016.5
20260906041519 21 44 0.0 0.0 0.00 0.00 0.00 95 1016.2
20260906041019 21 75 0.0 0.0 0.00 0.00 0.00 96 1016.5
20260906040514 21 26 4.8 8.0 0.00 0.00 0.00 95 1016.5
20260906040010 21 46 0.0 3.2 0.00 0.00 0.00 95 1016.4
20260906035504 21 62 0.0 4.8 0.00 0.00 0.00 95 1016.4
20260906035000 21 34 0.0 0.0 0.00 0.00 0.00 95 1016.3
20260906034500 21 188 0.0 0.0 0.00 0.00 0.00 95 1016.5
20260906033955 21 39 0.0 0.0 0.00 0.00 0.00 95 1016.5
20260906033450 21 51 0.0 0.0 0.00 0.00 0.00 95 1016.3
20260906032945 21 37 0.0 0.0 0.00 0.00 0.00 95 1016.3
20260906032443 21 36 0.0 0.0 0.00 0.00 0.00 95 1016.4
20260906031942 21 46 0.0 0.0 0.00 0.00 0.00 95 1016.5
20260906031437 21 45 0.0 3.2 0.00 0.00 0.00 95 1016.4
20260906030933 21 47 4.8 4.8 0.00 0.00 0.00 95 1015.9
20260906030427 21 50 0.0 0.0 0.00 0.00 0.00 96 1016.4
20260906025922 21 25 0.0 0.0 0.00 0.00 0.00 96 1016.5
20260906025416 21 76 0.0 0.0 0.00 0.00 0.00 96 1016.3
20260906024915 21 30 4.8 8.0 0.00 0.00 0.00 96 1016.4
20260906024414 21 27 0.0 0.0 0.00 0.00 0.00 96 1016.3
20260906023910 21 17 3.2 4.8 0.00 0.00 0.00 96 1016.3
20260906023406 21 16 0.0 4.8 0.00 0.00 0.00 96 1016.2
20260906022906 21 35 0.0 3.2 0.00 0.00 0.00 96 1016.0
20260906022401 21 62 0.0 3.2 0.00 0.00 0.00 96 1016.4
20260906021857 21 47 3.2 4.8 0.00 0.00 0.00 96 1016.4
20260906021356 21 58 1.6 4.8 0.00 0.00 0.00 96 1016.3
20260906020851 21 17 0.0 3.2 0.00 0.00 0.00 96 1016.4
20260906020350 21 95 3.2 4.8 0.00 0.00 0.00 96 1016.5
20260906015845 22 64 0.0 0.0 0.00 0.00 0.00 96 1016.4
20260906015345 22 40 1.6 3.2 0.00 0.00 0.00 96 1016.4
20260906014844 22 40 0.0 0.0 0.00 0.00 0.00 95 1016.5
20260906014344 22 73 3.2 4.8 0.00 0.00 0.00 95 1016.5
20260906013841 22 63 6.4 11.3 0.00 0.00 0.00 95 1016.5
20260906013336 22 63 6.4 11.3 0.00 0.00 0.00 94 1016.3
20260906012831 22 37 0.0 3.2 0.00 0.00 0.00 94 1016.4
20260906012326 22 41 1.6 3.2 0.00 0.00 0.00 94 1016.3
20260906011821 22 69 0.0 3.2 0.00 0.00 0.00 94 1016.4
20260906011315 22 2 0.0 4.8 0.00 0.00 0.00 94 1016.2
20260906010811 22 62 1.6 4.8 0.00 0.00 0.00 94 1016.2
20260906010307 22 40 0.0 3.2 0.00 0.00 0.00 93 1016.0
20260906005802 22 48 4.8 4.8 0.00 0.00 0.00 93 1015.9
20260906005301 22 58 0.0 0.0 0.00 0.00 0.00 94 1015.8
20260906004800 22 84 3.2 11.3 0.00 0.00 0.00 93 1015.6
20260906004255 22 17 0.0 4.8 0.00 0.00 0.00 94 1016.0
20260906003755 22 57 0.0 3.2 0.00 0.00 0.00 94 1015.8
20260906003251 22 17 0.0 4.8 0.00 0.00 0.00 94 1016.0
20260906002746 22 21 0.0 0.0 0.00 0.00 0.00 95 1015.6
20260906002246 22 110 0.0 3.2 0.00 0.00 0.00 95 1015.3
20260906001742 22 90 1.6 4.8 0.00 0.00 0.00 95 1015.6
20260906001237 22 15 3.2 11.3 0.00 0.00 0.00 95 1015.8
20260906000732 22 340 1.6 12.9 0.00 0.00 0.00 95 1015.6
20260906000227 22 6 1.6 3.2 0.00 0.00 0.00 95 1015.7
20260905235727 22 357 0.0 3.2 0.00 0.00 0.00 95 1015.9
20260905235221 22 338 0.0 3.2 0.00 0.00 0.00 95 1015.4
20260905234717 22 111 4.8 11.3 0.00 0.00 0.00 94 1015.6
20260905234212 22 63 4.8 4.8 0.00 0.00 0.00 94 1015.9
20260905233707 22 34 1.6 3.2 0.00 0.00 0.00 94 1015.5
20260905233207 22 15 0.0 4.8 0.00 0.00 0.00 94 1015.7
20260905232702 22 205 3.2 12.9 0.00 0.00 0.00 94 1015.8
20260905232157 22 156 1.6 4.8 0.00 0.00 0.00 94 1015.7
20260905231653 22 19 0.0 3.2 0.00 0.00 0.00 94 1015.9
20260905231148 22 309 0.0 4.8 0.00 0.00 0.00 94 1015.6
20260905230644 22 31 1.6 4.8 0.00 0.00 0.00 94 1015.6
20260905230142 22 41 3.2 4.8 0.00 0.00 0.00 94 1015.5
20260905225642 22 45 0.0 8.0 0.00 0.00 0.00 94 1015.5
20260905225142 22 89 1.6 4.8 0.00 0.00 0.00 94 1015.2
20260905224642 22 130 1.6 3.2 0.00 0.00 0.00 94 1015.4
20260905224141 22 71 1.6 4.8 0.00 0.00 0.00 94 1015.8
20260905223638 22 13 3.2 4.8 0.00 0.00 0.00 94 1015.7
20260905223135 22 49 3.2 11.3 0.00 0.00 0.00 94 1015.7
20260905222630 22 206 1.6 8.0 0.00 0.00 0.00 94 1015.5
20260905222125 22 82 0.0 3.2 0.00 0.00 0.00 94 1015.5
20260905221621 22 78 1.6 4.8 0.00 0.00 0.00 93 1015.5
20260905221117 23 334 1.6 8.0 0.00 0.00 0.00 93 1015.5
20260905220613 23 98 1.6 11.3 0.00 0.00 0.00 93 1015.4
20260905220109 23 88 1.6 4.8 0.00 0.00 0.00 93 1015.5
20260905215608 23 66 8.0 16.1 0.00 0.00 0.00 93 1015.5
20260905215104 23 121 6.4 11.3 0.00 0.00 0.00 93 1015.3
20260905214600 23 24 0.0 4.8 0.00 0.00 0.00 94 1015.0
20260905214100 23 348 1.6 8.0 0.00 0.00 0.00 94 1015.2
20260905213601 23 359 1.6 4.8 0.00 0.00 0.00 93 1015.0
20260905213056 23 122 4.8 11.3 0.00 0.00 0.00 92 1014.9
20260905212556 23 46 8.0 11.3 0.00 0.00 0.00 92 1014.8
20260905212056 24 24 0.0 4.8 0.00 0.00 0.00 92 1014.8
20260905211551 24 22 3.2 8.0 0.00 0.00 0.00 91 1014.8
20260905211047 24 172 3.2 4.8 0.00 0.00 0.00 91 1015.0
20260905210543 24 1 3.2 4.8 0.00 0.00 0.00 91 1015.0
20260905210037 25 69 3.2 4.8 0.00 0.00 0.00 90 1015.1
20260905205537 25 3 1.6 11.3 0.00 0.00 0.00 90 1014.8
20260905205036 25 22 1.6 11.3 0.00 0.00 0.00 87 1015.0
20260905204531 27 120 1.6 8.0 0.00 0.00 0.00 84 1014.8
20260905204026 26 213 1.6 8.0 0.00 0.00 0.00 86 1014.6
20260905203526 26 219 1.6 4.8 0.00 0.00 0.00 85 1014.7
20260905203021 26 6 0.0 3.2 0.00 0.00 0.00 86 1014.7
20260905202517 26 153 3.2 4.8 0.00 0.00 0.00 87 1014.8
20260905202012 26 105 3.2 4.8 0.00 0.00 0.00 85 1015.0
20260905201508 26 20 3.2 3.2 0.00 0.00 0.00 86 1014.7
20260905201007 27 53 9.7 12.9 0.00 0.00 0.00 82 1014.7
20260905200503 26 50 3.2 11.3 0.00 0.00 0.00 85 1014.9
20260905200001 27 47 3.2 4.8 0.00 0.00 0.00 83 1015.0
20260905195456 27 55 1.6 4.8 0.00 0.00 0.00 82 1014.9
20260905194952 27 74 0.0 0.0 0.00 0.00 0.00 84 1015.0
20260905194451 26 305 0.0 3.2 0.00 0.00 0.00 86 1014.9
20260905193946 25 30 4.8 8.0 0.00 0.00 0.00 89 1015.1
20260905193446 25 80 3.2 4.8 0.00 0.00 0.00 90 1015.0
20260905192941 25 29 0.0 3.2 0.00 0.00 0.00 91 1015.0
20260905192436 25 121 0.0 3.2 0.00 0.00 0.00 91 1015.0
20260905191932 25 26 0.0 0.0 0.00 0.00 0.00 91 1015.0
20260905191431 25 30 0.0 3.2 0.00 0.00 0.00 90 1015.1
20260905190931 25 58 0.0 4.8 0.00 0.00 0.00 89 1015.3
20260905190429 25 65 8.0 8.0 0.00 0.00 0.00 89 1015.3
20260905185928 25 23 6.4 8.0 0.00 0.00 0.00 87 1015.2
20260905185423 25 57 1.6 11.3 0.00 0.00 0.00 87 1015.3
20260905184921 25 80 3.2 8.0 0.00 0.00 0.00 87 1015.3
20260905184417 25 78 8.0 12.9 0.00 0.00 0.00 86 1015.3
20260905183915 25 189 3.2 3.2 0.00 0.00 0.00 88 1015.3
20260905183410 25 57 6.4 8.0 0.00 0.00 0.00 88 1015.6
20260905182905 25 32 1.6 3.2 0.00 0.00 0.00 88 1015.4
20260905182404 25 176 1.6 4.8 0.00 0.00 0.00 89 1015.3
20260905181901 25 13 0.0 4.8 0.00 0.00 0.00 90 1015.4
20260905181400 25 175 6.4 8.0 0.00 0.00 0.00 90 1015.3
20260905180859 25 58 6.4 8.0 0.00 0.00 0.00 90 1015.4
20260905180354 25 55 0.0 3.2 0.00 0.00 0.00 89 1015.3
20260905175849 25 53 3.2 4.8 0.00 0.00 0.00 89 1015.2
20260905175343 25 101 1.6 11.3 0.00 0.00 0.00 90 1015.1
20260905174838 25 42 1.6 4.8 0.00 0.00 0.00 89 1015.1
20260905174334 25 309 0.0 4.8 0.00 0.00 0.00 90 1015.2
20260905173830 25 8 1.6 4.8 0.00 0.00 0.00 89 1015.1
20260905173326 25 75 1.6 4.8 0.00 0.00 0.00 88 1015.2
20260905172826 25 83 3.2 4.8 0.00 0.00 0.00 88 1015.2
20260905172324 25 62 0.0 8.0 0.00 0.00 0.00 88 1015.1
20260905171820 25 68 3.2 8.0 0.00 0.00 0.00 88 1015.3
20260905171317 25 46 4.8 11.3 0.00 0.00 0.00 88 1015.3
20260905170813 25 41 4.8 8.0 0.00 0.00 0.00 89 1015.3
20260905170308 25 77 4.8 8.0 0.00 0.00 0.00 89 1015.5
20260905165807 24 14 4.8 8.0 0.00 0.00 0.00 90 1015.6
20260905165306 24 351 4.8 8.0 0.00 0.00 0.00 90 1015.6
20260905164803 24 16 0.0 0.0 0.00 0.00 0.00 90 1015.5
20260905164258 24 66 4.8 11.3 0.00 0.00 0.00 90 1015.5
20260905163753 24 337 1.6 3.2 0.00 0.00 0.00 90 1015.4
20260905163249 24 40 8.0 11.3 0.00 0.00 0.00 90 1015.5
20260905162745 24 48 3.2 4.8 0.00 0.00 0.00 90 1015.6
20260905162245 24 31 0.0 8.0 0.00 0.00 0.00 91 1015.4
20260905161739 25 34 1.6 8.0 0.00 0.00 0.00 90 1015.5
20260905161238 25 51 3.2 8.0 0.00 0.00 0.00 91 1015.2
20260905160737 25 154 1.6 8.0 0.00 0.00 0.00 90 1015.4
20260905160237 24 66 0.0 0.0 0.00 0.00 0.00 92 1015.4
20260905155732 24 75 1.6 4.8 0.00 0.00 0.00 92 1015.5
20260905155231 23 58 1.6 4.8 0.00 0.00 0.00 92 1015.2
20260905154725 23 36 1.6 8.0 0.00 0.00 0.00 92 1015.2
20260905154221 23 40 0.0 8.0 0.00 0.00 0.00 93 1015.3
20260905153716 23 18 3.2 8.0 0.00 0.00 0.00 93 1015.2
20260905153212 23 33 0.0 3.2 0.00 0.00 0.00 93 1015.1
20260905152707 23 56 0.0 3.2 0.00 0.00 0.00 94 1014.9
20260905152201 23 153 0.0 0.0 0.00 0.00 0.00 93 1015.1
20260905151655 23 9 1.6 8.0 0.00 0.00 0.00 94 1014.7
20260905151151 23 28 0.0 0.0 0.00 0.00 0.00 94 1014.9
20260905150646 23 36 0.0 0.0 0.00 0.00 0.00 95 1014.9
20260905150145 23 24 1.6 4.8 0.00 0.00 0.00 94 1014.9
20260905145643 23 68 0.0 8.0 0.00 0.00 0.00 94 1015.0
20260905145143 23 51 0.0 4.8 0.00 0.00 0.00 94 1014.8
20260905144637 23 50 0.0 0.0 0.00 0.00 0.00 94 1014.7
20260905144136 23 125 0.0 0.0 0.00 0.00 0.00 94 1014.9
20260905143632 23 54 0.0 4.8 0.00 0.00 0.00 95 1014.8
20260905143131 23 76 0.0 3.2 0.00 0.00 0.00 95 1014.4
20260905142630 23 72 0.0 0.0 0.00 0.00 0.00 95 1014.6
20260905142130 23 31 1.6 4.8 0.00 0.00 0.00 95 1014.6
20260905141630 23 61 0.0 0.0 0.00 0.00 0.00 96 1014.3
20260905141127 23 75 0.0 0.0 0.00 0.00 0.00 96 1014.5
20260905140622 23 140 1.6 4.8 0.00 0.00 0.00 97 1014.4
20260905140121 23 35 0.0 0.0 0.00 0.00 0.00 98 1014.6
20260905135616 23 231 1.6 3.2 0.00 0.00 0.00 98 1014.4
20260905135111 23 51 0.0 0.0 0.00 0.00 0.00 98 1014.4
20260905134607 23 54 0.0 0.0 0.00 0.00 0.00 99 1014.5
20260905134105 22 62 0.0 0.0 0.00 0.00 0.00 99 1014.3
20260905133601 23 43 0.0 0.0 0.00 0.00 0.00 99 1014.5
20260905133100 22 62 0.0 0.0 0.00 0.00 0.00 99 1014.7
20260905132600 22 49 0.0 4.8 0.00 0.00 0.00 99 1014.8
20260905132054 22 80 0.0 0.0 0.00 0.00 0.00 99 1014.8
20260905131550 22 50 0.0 0.0 0.00 0.00 0.00 99 1014.5
20260905131045 23 28 1.6 4.8 0.00 0.00 0.00 99 1014.4
20260905130544 23 55 0.0 0.0 0.00 0.00 0.00 99 1014.0
20260905130040 23 55 0.0 0.0 0.00 0.00 0.00 99 1014.2
20260905125539 23 55 0.0 3.2 0.00 0.00 0.00 99 1014.2
20260905125035 22 120 1.6 4.8 0.00 0.00 0.00 99 1013.9
20260905124531 22 52 0.0 0.0 0.00 0.00 0.00 99 1013.8
20260905124021 22 53 0.0 0.0 0.00 0.00 0.00 99 1013.7
20260905123516 22 53 0.0 0.0 0.00 0.00 0.00 99 1013.8
20260905123014 22 53 0.0 3.2 0.00 0.00 0.00 99 1013.5
20260905122513 22 58 0.0 0.0 0.00 0.00 0.00 99 1013.4
20260905122009 22 58 0.0 3.2 0.00 0.00 0.00 99 1013.4